Regional Weather Roundup
Issued by NWS Charleston, SC

Current Version | Previous Version | Text Only | Print | Product List | Glossary Off
Versions: 1 2 3 4 5 6 7 8 9 10 11 12 13 14 15 16 17 18 19 20 21 22 23 24 25 26 27 28 29 30 31 32 33 34 35 36 37 38 39 40 41 42 43 44 45 46 47 48 49 50

000
ASUS42 KCHS 071712
RWRCHS

REGIONAL WEATHER ROUNDUP
NATIONAL WEATHER SERVICE CHARLESTON SC
100 PM EDT TUE JUL 07 2015

NOTE: "FAIR" INDICATES FEW OR NO CLOUDS BELOW 12,000 FEET WITH NO
SIGNIFICANT WEATHER AND/OR OBSTRUCTIONS TO VISIBILITY.

NOT ALL STATIONS ARE QUALITY CONTROLLED BY THE NATIONAL
WEATHER SERVICE. USE DATA WITH CAUTION...ESPECIALLY
DEWPOINT OBSERVATIONS.

SCZ027-030-031-034>040-042>050-071800-
...SOUTHEAST SOUTH CAROLINA...

CITY           SKY/WX    TMP DP  RH WIND       PRES   REMARKS
N CHARLESTON   MOSUNNY   87  70  56 S7        30.14F HX  92
WATERFRONT PAR   N/A     84  75  74 S10       30.13S HX  92
MOUNT PLEASANT LGT RAIN  88  73  62 S10       30.15F HX  96
JOHNS ISLAND   FAIR      86  75  70 S10       30.15F HX  95
PINOPOLIS      NOT AVBL
MONCKS CORNER    N/A     79  72  78 CALM      30.14F
SUMMERVILLE    CLOUDY    81  73  78 CALM      30.15F
BEAUFORT MCAS  PTSUNNY   89  73  59 VRB6      30.14F HX  97
BEAUFORT ARPT  FAIR      88  73  62 SW6       30.14F HX  96
HILTON HEAD IS MOSUNNY   88  75  66 S9        30.17F HX  97
WALTERBORO     PTSUNNY   82  68  61 SW7       30.15F
ALLENDALE      FAIR      88  72  58 CALM      30.13F HX  94

...SOUTHERN MIDLANDS AND PEE DEE...

CITY           SKY/WX    TMP DP  RH WIND       PRES   REMARKS
GEORGETOWN     NOT AVBL
KINGSTREE      NOT AVBL
ORANGEBURG     MOSUNNY   88  71  57 SW8       30.13F HX  94
BARNWELL       CLOUDY    90  72  55 SW5       30.14F HX  96
AIKEN          NOT AVBL
MANNING        FAIR      86  66  51 S5        30.14S
COLUMBIA       MOSUNNY   91  69  48 SW6       30.12F HX  96
SUMTER         MOSUNNY   89  69  50 S5        30.11F HX  93
FLORENCE       MOSUNNY   90  69  50 VRB5      30.13F HX  94
MYRTLE BEACH   MOSUNNY   88  73  62 S13       30.17F HX  96
N MYRTLE BEACH SUNNY     85  76  74 S15       30.15F HX  94

$$

GAZ063-065-086>088-099>101-113>116-118-119-134>141-150-071800-
...SOUTHEAST GEORGIA...

CITY           SKY/WX    TMP DP  RH WIND       PRES   REMARKS
SAVANNAH ARPT  PTSUNNY   87  69  54 SW5       30.15F HX  91
HUNTER AAF     MOSUNNY   89  74  61 SW8       30.13F HX  97
FORT STEWART   MOSUNNY   89  70  52 SW8       30.14F HX  95
STATESBORO     NOT AVBL
SYLVANIA       MOSUNNY   90  74  60 W6        30.16F HX  99
CLAXTON        FAIR      88  73  62 CALM      30.15F HX  96

...CSRA...CENTRAL AND FAR SOUTHEAST GEORGIA...

CITY           SKY/WX    TMP DP  RH WIND       PRES   REMARKS
THOMSON        MOSUNNY   89  73  60 SW3       30.20S HX  97
AUGUSTA-BUSH   MOSUNNY   89  70  53 W7        30.13F HX  94
AUGUSTA-DANIEL MOSUNNY   89  70  53 SW9       30.15F HX  94
SWAINSBORO     FAIR      90  72  55 CALM      30.16F HX  96
VIDALIA        MOSUNNY   88  70  55 W5        30.17F HX  92
EASTMAN        FAIR      88  70  54 NW6       30.19F HX  93
HAZLEHURST     FAIR      89  73  59 W3        30.16F HX  96
ALMA           MOSUNNY   86  71  60 NW8       30.17F HX  91
WAYCROSS       NOT AVBL
JESUP          FAIR      90  72  55 CALM      30.16F HX  96
BAXLEY         PTSUNNY   88  70  55 NW3       30.17S HX  92
BRUNSWICK      SUNNY     90  70  51 W6        30.17S HX  95
SAINT SIMONS   SUNNY     85  72  65 S9        30.17F HX  91

$$

SCZ027-028-034-036>038-045-046-048>050-GAZ119-141-071800-
...LAKE AND SUPPLEMENTAL COASTAL OBSERVATIONS...

STATION/POSITION TIME  TEMP    WIND        PRES    WAVE   SWELL
                       AIR SEA DIR/SP/G            HT/PER HT/PER/DIR
                 (UTC) (F)     (DEG/KT/KT) (MB)    (FT/S) (FT/S/D)
UPR LAKE MARION  NOT AVBL
WINYAH BAY       NOT AVBL
LAKE MURRAY      1600   84     160/  4/  5 1020.0S
ACE BASIN NERRS  NOT AVBL
FORT PULASKI     1600   85 83  160/  7/ 10 1021.8F
SAPELO ISLAND    1600   88     170/  5     1022.0S

$$

ANZ835-935-AMZ111-154-330-350-352-354-370-450-454-472-071800-
...C-MAN AND BUOY OBSERVATIONS...

STATION/POSITION TIME  TEMP    WIND        PRES    WAVE   SWELL
                       AIR SEA DIR/SP/G            HT/PER HT/PER/DIR
                 (UTC) (F)     (DEG/KT/KT) (MB)    (FT/S) (FT/S/D)
BUOY 41004       1650   81 83  200/  8/ 10 1021.0F   3/ 8   3/ 8
BUOY 41008       1650   77 79  210/  8/ 10 1021.7F   2/ 9   2/100/ 9
FOLLY BEACH CMAN 1600   82     190/  9/ 11 1021.6R
CAPERS NEARSHORE NOT AVBL
FRIPP NEARSHORE  1600   84     200/ 10/ 12 1021.2F


STATION/POSITION TIME  TEMP    WIND        PRES    WAVE   SWELL
                       AIR SEA DIR/SP/G            HT/PER HT/PER/DIR
                 (UTC) (F)     (DEG/KT/KT) (MB)    (FT/S) (FT/S/D)
5E ST. MARYS GA  1621      79                N/A     2/ 8
FRYING PAN BUOY  1650   81 81  200/  6/  8 1021.8F   3/ 8   3/130/ 8
BUOY 41025       1650   81 83  220/ 14/ 16 1020.8F   3/ 9   2/130/ 9
CAPE LOOKOUT NC  1600   82     220/  9/ 12 1021.3R
BUOY 41002       1650   83 81  210/ 10/ 10 1023.7R   4/ 9   3/110/ 9
BUOY 41010       1620   82 83  160/  4/  4 1022.9F
ST AUGUSTINE FL  1700   76 74  100/ 10/ 10 1022.5F


$$


USA.gov is the U.S. government's official web portal to all federal, state and local government web resources and services.